contact: severine.martini@mio.osupytheas.fr, dominique.lefevre@mio.osupytheas.fr
Project:EMSO Ligure-ouest http://www.emso-fr.org/EMSO-France
Sensor Microcat Sea-Bird SBE37 SMP,  Serial 57510 
DOI : "https://doi.org/10.17882/97948" 
Title:EMSO Ligure Ouest : Data Bathybot capteur Microcat - deploiement 2023-04-28
Datetime,Profondeur,Latitude,Longitude,Temperature,Conductivite,Pression,Salinite
time,m,degree_north,degree_east,degree_C,S/m,db,PSU 
2023-11-04T00:00:49,2420,42.8014,5.9826,13.2973,4.32207,2453.649,35.8867
2023-11-04T00:03:49,2420,42.8014,5.9826,13.2968,4.32191,2453.627,35.8857
2023-11-04T00:06:49,2420,42.8014,5.9826,13.2971,4.32231,2453.649,35.8891
2023-11-04T00:09:49,2420,42.8014,5.9826,13.2973,4.32264,2453.649,35.8920
2023-11-04T00:12:49,2420,42.8014,5.9826,13.2970,4.32293,2453.649,35.8950
2023-11-04T00:15:49,2420,42.8014,5.9826,13.2973,4.32164,2453.649,35.8826
2023-11-04T00:18:49,2420,42.8014,5.9826,13.2976,4.32245,2453.627,35.8899
2023-11-04T00:21:49,2420,42.8014,5.9826,13.2970,4.32365,2453.627,35.9016
2023-11-04T00:24:49,2420,42.8014,5.9826,13.2973,4.32239,2453.649,35.8896
2023-11-04T00:27:49,2420,42.8014,5.9826,13.2970,4.32179,2453.635,35.8843
2023-11-04T00:30:49,2420,42.8014,5.9826,13.2977,4.32173,2453.627,35.8831
2023-11-04T00:33:49,2420,42.8014,5.9826,13.2970,4.32375,2453.641,35.9026
2023-11-04T00:36:49,2420,42.8014,5.9826,13.2970,4.32348,2453.627,35.9001
2023-11-04T00:39:49,2420,42.8014,5.9826,13.2973,4.32103,2453.641,35.8770
2023-11-04T00:42:49,2420,42.8014,5.9826,13.2975,4.32058,2453.627,35.8726
2023-11-04T00:45:49,2420,42.8014,5.9826,13.2972,4.31989,2453.627,35.8664
2023-11-04T00:48:49,2420,42.8014,5.9826,13.2973,4.31839,2453.627,35.8522
2023-11-04T00:51:49,2420,42.8014,5.9826,13.2970,4.31938,2453.649,35.8619
2023-11-04T00:54:49,2420,42.8014,5.9826,13.2974,4.32082,2453.627,35.8749
2023-11-04T00:57:49,2420,42.8014,5.9826,13.2974,4.31891,2453.604,35.8571
2023-11-04T01:00:49,2420,42.8014,5.9826,13.2973,4.31945,2453.612,35.8623
2023-11-04T01:03:49,2420,42.8014,5.9826,13.2971,4.31879,2453.604,35.8562
2023-11-04T01:06:49,2420,42.8014,5.9826,13.2968,4.31935,2453.604,35.8617
2023-11-04T01:09:49,2420,42.8014,5.9826,13.2973,4.32077,2453.612,35.8745
2023-11-04T01:12:49,2420,42.8014,5.9826,13.2971,4.32104,2453.627,35.8772
2023-11-04T01:15:49,2420,42.8014,5.9826,13.2971,4.32013,2453.582,35.8687
2023-11-04T01:18:49,2420,42.8014,5.9826,13.2970,4.32012,2453.627,35.8687
2023-11-04T01:21:49,2420,42.8014,5.9826,13.2973,4.31869,2453.627,35.8551
2023-11-04T01:24:49,2420,42.8014,5.9826,13.2974,4.31800,2453.619,35.8486
2023-11-04T01:27:49,2420,42.8014,5.9826,13.2976,4.31720,2453.604,35.8409
2023-11-04T01:30:49,2420,42.8014,5.9826,13.2978,4.31798,2453.582,35.8480
2023-11-04T01:33:49,2420,42.8014,5.9826,13.2978,4.31850,2453.567,35.8529
2023-11-04T01:36:49,2420,42.8014,5.9826,13.2975,4.32019,2453.582,35.8690
2023-11-04T01:39:49,2420,42.8014,5.9826,13.2977,4.32069,2453.604,35.8734
2023-11-04T01:42:49,2420,42.8014,5.9826,13.2970,4.32186,2453.559,35.8850
2023-11-04T01:45:49,2420,42.8014,5.9826,13.2975,4.32080,2453.604,35.8747
2023-11-04T01:48:49,2420,42.8014,5.9826,13.2975,4.32149,2453.559,35.8810
2023-11-04T01:51:49,2420,42.8014,5.9826,13.2970,4.32326,2453.582,35.8980
2023-11-04T01:54:49,2420,42.8014,5.9826,13.2975,4.32310,2453.604,35.8961
2023-11-04T01:57:49,2420,42.8014,5.9826,13.2970,4.32267,2453.604,35.8925
2023-11-04T02:00:49,2420,42.8014,5.9826,13.2975,4.32444,2453.582,35.9086
2023-11-04T02:03:49,2420,42.8014,5.9826,13.2974,4.32061,2453.582,35.8730
2023-11-04T02:06:49,2420,42.8014,5.9826,13.2971,4.32192,2453.582,35.8855
2023-11-04T02:09:49,2420,42.8014,5.9826,13.2970,4.32261,2453.619,35.8919
2023-11-04T02:12:49,2420,42.8014,5.9826,13.2971,4.32098,2453.582,35.8767
2023-11-04T02:15:49,2420,42.8014,5.9826,13.2970,4.32166,2453.582,35.8831
2023-11-04T02:18:49,2420,42.8014,5.9826,13.2972,4.32310,2453.582,35.8964
2023-11-04T02:21:49,2420,42.8014,5.9826,13.2981,4.32236,2453.582,35.8887
2023-11-04T02:24:49,2420,42.8014,5.9826,13.2973,4.32266,2453.604,35.8921
2023-11-04T02:27:49,2420,42.8014,5.9826,13.2972,4.32397,2453.582,35.9045
2023-11-04T02:30:49,2420,42.8014,5.9826,13.2985,4.32731,2453.544,35.9345
2023-11-04T02:33:49,2420,42.8014,5.9826,13.2974,4.33211,2453.604,35.9803
2023-11-04T02:36:49,2420,42.8014,5.9826,13.2978,4.33323,2453.559,35.9905
2023-11-04T02:39:49,2420,42.8014,5.9826,13.2992,4.33545,2453.582,36.0098
2023-11-04T02:42:49,2420,42.8014,5.9826,13.2974,4.33480,2453.567,36.0054
2023-11-04T02:45:49,2420,42.8014,5.9826,13.2988,4.33711,2453.559,36.0257
2023-11-04T02:48:49,2420,42.8014,5.9826,13.2988,4.33656,2453.582,36.0205
2023-11-04T02:51:49,2420,42.8014,5.9826,13.2995,4.34183,2453.582,36.0692
2023-11-04T02:54:49,2420,42.8014,5.9826,13.2973,4.33952,2453.559,36.0496
2023-11-04T02:57:49,2420,42.8014,5.9826,13.2985,4.33968,2453.574,36.0500
2023-11-04T03:00:49,2420,42.8014,5.9826,13.2989,4.33906,2453.582,36.0438
2023-11-04T03:03:49,2420,42.8014,5.9826,13.3024,4.33841,2453.604,36.0345
2023-11-04T03:06:49,2420,42.8014,5.9826,13.2992,4.33774,2453.559,36.0312
2023-11-04T03:09:49,2420,42.8014,5.9826,13.3016,4.33778,2453.582,36.0294
2023-11-04T03:12:49,2420,42.8014,5.9826,13.2983,4.33798,2453.604,36.0343
2023-11-04T03:15:49,2420,42.8014,5.9826,13.3005,4.33760,2453.582,36.0287
2023-11-04T03:18:49,2420,42.8014,5.9826,13.2988,4.33864,2453.582,36.0401
2023-11-04T03:21:49,2420,42.8014,5.9826,13.2985,4.33835,2453.582,36.0375
2023-11-04T03:24:49,2420,42.8014,5.9826,13.2973,4.33822,2453.567,36.0375
2023-11-04T03:27:49,2420,42.8014,5.9826,13.2986,4.33738,2453.590,36.0284
2023-11-04T03:30:49,2420,42.8014,5.9826,13.2982,4.33757,2453.582,36.0306
2023-11-04T03:33:49,2420,42.8014,5.9826,13.2991,4.33755,2453.559,36.0295
2023-11-04T03:36:49,2420,42.8014,5.9826,13.2979,4.33921,2453.582,36.0462
2023-11-04T03:39:49,2420,42.8014,5.9826,13.3026,4.33829,2453.596,36.0332
2023-11-04T03:42:49,2420,42.8014,5.9826,13.3011,4.33674,2453.582,36.0201
2023-11-04T03:45:49,2420,42.8014,5.9826,13.2975,4.33894,2453.559,36.0441
2023-11-04T03:48:49,2420,42.8014,5.9826,13.2981,4.33760,2453.559,36.0310
2023-11-04T03:51:49,2420,42.8014,5.9826,13.2973,4.33726,2453.582,36.0284
2023-11-04T03:54:49,2420,42.8014,5.9826,13.2976,4.33824,2453.567,36.0374
2023-11-04T03:57:49,2420,42.8014,5.9826,13.2975,4.33817,2453.574,36.0368
2023-11-04T04:00:49,2420,42.8014,5.9826,13.2970,4.33854,2453.582,36.0408
2023-11-04T04:03:49,2420,42.8014,5.9826,13.2993,4.33983,2453.559,36.0507
2023-11-04T04:06:49,2420,42.8014,5.9826,13.2982,4.33869,2453.582,36.0410
2023-11-04T04:09:49,2420,42.8014,5.9826,13.2973,4.33905,2453.574,36.0452
2023-11-04T04:12:49,2420,42.8014,5.9826,13.2974,4.60031,2453.559,38.4990
2023-11-04T04:15:49,2420,42.8014,5.9826,13.2985,4.60044,2453.551,38.4992
2023-11-04T04:18:49,2420,42.8014,5.9826,13.2973,4.60066,2453.559,38.5024
2023-11-04T04:21:49,2420,42.8014,5.9826,13.2972,4.60041,2453.582,38.5002
2023-11-04T04:24:49,2420,42.8014,5.9826,13.2978,4.60006,2453.559,38.4963
2023-11-04T04:27:49,2420,42.8014,5.9826,13.2970,4.60130,2453.582,38.5088
2023-11-04T04:30:49,2420,42.8014,5.9826,13.2972,4.60065,2453.537,38.5024
2023-11-04T04:33:49,2420,42.8014,5.9826,13.2983,4.60014,2453.567,38.4965
2023-11-04T04:36:49,2420,42.8014,5.9826,13.2982,4.60015,2453.582,38.4967
2023-11-04T04:39:49,2420,42.8014,5.9826,13.2975,4.60019,2453.582,38.4979
2023-11-04T04:42:49,2420,42.8014,5.9826,13.2971,4.60031,2453.559,38.4993
2023-11-04T04:45:49,2420,42.8014,5.9826,13.2970,4.60093,2453.574,38.5052
2023-11-04T04:48:49,2420,42.8014,5.9826,13.2972,4.60002,2453.582,38.4965
2023-11-04T04:51:49,2420,42.8014,5.9826,13.2975,4.60000,2453.559,38.4961
2023-11-04T04:54:49,2420,42.8014,5.9826,13.2974,4.60018,2453.582,38.4978
2023-11-04T04:57:49,2420,42.8014,5.9826,13.2973,4.60139,2453.567,38.5093
2023-11-04T05:00:49,2420,42.8014,5.9826,13.2969,4.60090,2453.544,38.5050
2023-11-04T05:03:49,2420,42.8014,5.9826,13.2973,4.60208,2453.582,38.5158
2023-11-04T05:06:50,2420,42.8014,5.9826,13.2975,4.60044,2453.582,38.5002
2023-11-04T05:09:49,2420,42.8014,5.9826,13.2973,4.60348,2453.559,38.5290
2023-11-04T05:12:49,2420,42.8014,5.9826,13.2968,4.60434,2453.559,38.5377
2023-11-04T05:15:49,2420,42.8014,5.9826,13.2975,4.60352,2453.559,38.5293
2023-11-04T05:18:49,2420,42.8014,5.9826,13.2978,4.60555,2453.551,38.5481
2023-11-04T05:21:49,2420,42.8014,5.9826,13.2975,4.60574,2453.537,38.5503
2023-11-04T05:24:49,2420,42.8014,5.9826,13.2970,4.60260,2453.537,38.5210
2023-11-04T05:27:49,2420,42.8014,5.9826,13.2974,4.60495,2453.559,38.5428
2023-11-04T05:30:49,2420,42.8014,5.9826,13.2972,4.60127,2453.559,38.5083
2023-11-04T05:33:49,2420,42.8014,5.9826,13.3006,4.60184,2453.559,38.5102
2023-11-04T05:36:49,2420,42.8014,5.9826,13.2975,4.60356,2453.551,38.5296
2023-11-04T05:39:49,2420,42.8014,5.9826,13.2973,4.60486,2453.528,38.5420
2023-11-04T05:42:49,2420,42.8014,5.9826,13.2973,4.60218,2453.537,38.5168
2023-11-04T05:45:49,2420,42.8014,5.9826,13.3268,4.60135,2453.537,38.4797
2023-11-04T05:48:49,2420,42.8014,5.9826,13.2990,4.60099,2453.537,38.5039
2023-11-04T05:51:49,2420,42.8014,5.9826,13.3029,4.60102,2453.551,38.5002
2023-11-04T05:54:49,2420,42.8014,5.9826,13.3435,4.60177,2453.588,38.4671
2023-11-04T05:57:50,2420,42.8014,5.9826,13.2977,4.60225,2453.551,38.5171
2023-11-04T06:00:49,2420,42.8014,5.9826,13.3437,4.60194,2453.551,38.4685
2023-11-04T06:03:49,2420,42.8014,5.9826,13.2974,4.60476,2453.551,38.5411
2023-11-04T06:06:49,2420,42.8014,5.9826,13.2973,4.60347,2453.574,38.5289
2023-11-04T06:09:49,2420,42.8014,5.9826,13.2980,4.60408,2453.574,38.5340
2023-11-04T06:12:49,2420,42.8014,5.9826,13.3655,4.60099,2453.559,38.4379
2023-11-04T06:15:49,2420,42.8014,5.9826,13.3460,4.60103,2453.559,38.4575
2023-11-04T06:18:49,2420,42.8014,5.9826,13.2988,4.60206,2453.522,38.5142
2023-11-04T06:21:49,2420,42.8014,5.9826,13.2972,4.60115,2453.528,38.5072
2023-11-04T06:24:49,2420,42.8014,5.9826,13.2995,4.60132,2453.574,38.5064
2023-11-04T06:27:49,2420,42.8014,5.9826,13.3000,4.60242,2453.551,38.5164
2023-11-04T06:30:49,2420,42.8014,5.9826,13.2978,4.60124,2453.574,38.5073
2023-11-04T06:33:49,2420,42.8014,5.9826,13.2993,4.60149,2453.551,38.5083
2023-11-04T06:36:49,2420,42.8014,5.9826,13.3210,4.60665,2453.559,38.5354
2023-11-04T06:39:49,2420,42.8014,5.9826,13.2978,4.60325,2453.559,38.5263
2023-11-04T06:42:49,2420,42.8014,5.9826,13.4090,4.60141,2453.574,38.3988
2023-11-04T06:45:49,2420,42.8014,5.9826,13.3753,4.60189,2453.574,38.4367
2023-11-04T06:48:49,2420,42.8014,5.9826,13.3020,4.60300,2453.574,38.5198
2023-11-04T06:51:49,2420,42.8014,5.9826,13.4476,4.60100,2453.551,38.3569
2023-11-04T06:54:49,2420,42.8014,5.9826,13.3015,4.60370,2453.574,38.5269
2023-11-04T06:57:49,2420,42.8014,5.9826,13.3170,4.60166,2453.551,38.4923
2023-11-04T07:00:49,2420,42.8014,5.9826,13.3023,4.60105,2453.588,38.5011
2023-11-04T07:03:49,2420,42.8014,5.9826,13.3044,4.60090,2453.559,38.4976
2023-11-04T07:06:49,2420,42.8014,5.9826,13.3148,4.60121,2453.574,38.4902
2023-11-04T07:09:49,2420,42.8014,5.9826,13.3000,4.60277,2453.551,38.5197
2023-11-04T07:12:49,2420,42.8014,5.9826,13.2999,4.60204,2453.574,38.5129
2023-11-04T07:15:49,2420,42.8014,5.9826,13.3267,4.60124,2453.574,38.4787
2023-11-04T07:18:49,2420,42.8014,5.9826,13.3654,4.60069,2453.551,38.4351
2023-11-04T07:21:49,2420,42.8014,5.9826,13.3004,4.60076,2453.559,38.5002
2023-11-04T07:24:49,2420,42.8014,5.9826,13.3737,4.60081,2453.574,38.4280
2023-11-04T07:27:49,2420,42.8014,5.9826,13.3947,4.60129,2453.619,38.4118
2023-11-04T07:30:49,2420,42.8014,5.9826,13.3390,4.60103,2453.619,38.4645
2023-11-04T07:33:49,2420,42.8014,5.9826,13.3230,4.60212,2453.619,38.4907
2023-11-04T07:36:49,2420,42.8014,5.9826,13.3447,4.60106,2453.596,38.4592
2023-11-04T07:39:49,2420,42.8014,5.9826,13.3549,4.60091,2453.619,38.4477
2023-11-04T07:42:49,2420,42.8014,5.9826,13.3444,4.60071,2453.596,38.4562
2023-11-04T07:45:49,2420,42.8014,5.9826,13.2998,4.60110,2453.582,38.5041
2023-11-04T07:48:49,2420,42.8014,5.9826,13.2980,4.60143,2453.596,38.5090
2023-11-04T07:51:49,2420,42.8014,5.9826,13.2985,4.60223,2453.604,38.5161
2023-11-04T07:54:49,2420,42.8014,5.9826,13.3127,4.60279,2453.627,38.5072
2023-11-04T07:57:49,2420,42.8014,5.9826,13.3061,4.60410,2453.604,38.5262
2023-11-04T08:00:49,2420,42.8014,5.9826,13.2970,4.60136,2453.619,38.5093
2023-11-04T08:03:49,2420,42.8014,5.9826,13.3403,4.60107,2453.627,38.4637
2023-11-04T08:06:49,2420,42.8014,5.9826,13.3355,4.60137,2453.619,38.4712
2023-11-04T08:09:49,2420,42.8014,5.9826,13.3012,4.60101,2453.604,38.5018
2023-11-04T08:12:49,2420,42.8014,5.9826,13.2973,4.60180,2453.627,38.5131
2023-11-04T08:15:49,2420,42.8014,5.9826,13.3026,4.60237,2453.590,38.5133
2023-11-04T08:18:49,2420,42.8014,5.9826,13.3004,4.60297,2453.596,38.5211
2023-11-04T08:21:49,2420,42.8014,5.9826,13.2970,4.60208,2453.641,38.5161
2023-11-04T08:24:49,2420,42.8014,5.9826,13.2970,4.60332,2453.604,38.5278
2023-11-04T08:27:49,2420,42.8014,5.9826,13.2973,4.60158,2453.604,38.5111
2023-11-04T08:30:49,2420,42.8014,5.9826,13.2974,4.60175,2453.604,38.5126
2023-11-04T08:33:49,2420,42.8014,5.9826,13.2973,4.60205,2453.604,38.5155
2023-11-04T08:36:49,2420,42.8014,5.9826,13.2982,4.60334,2453.627,38.5268
2023-11-04T08:39:49,2420,42.8014,5.9826,13.2972,4.60294,2453.627,38.5241
2023-11-04T08:42:49,2420,42.8014,5.9826,13.2974,4.60214,2453.627,38.5162
2023-11-04T08:45:49,2420,42.8014,5.9826,13.2973,4.60031,2453.627,38.4991
2023-11-04T08:48:49,2420,42.8014,5.9826,13.2971,4.60283,2453.604,38.5231
2023-11-04T08:51:49,2420,42.8014,5.9826,13.2988,4.60464,2453.649,38.5384
2023-11-04T08:54:49,2420,42.8014,5.9826,13.2972,4.60175,2453.627,38.5128
2023-11-04T08:57:49,2420,42.8014,5.9826,13.2986,4.60233,2453.627,38.5168
2023-11-04T09:00:49,2420,42.8014,5.9826,13.2975,4.60191,2453.672,38.5140
2023-11-04T09:03:49,2420,42.8014,5.9826,13.2976,4.60309,2453.649,38.5251
2023-11-04T09:06:49,2420,42.8014,5.9826,13.2974,4.60177,2453.627,38.5128
2023-11-04T09:09:49,2420,42.8014,5.9826,13.2991,4.45924,2453.664,37.1691
2023-11-04T09:12:49,2420,42.8014,5.9826,13.2975,4.46010,2453.649,37.1787
2023-11-04T09:15:49,2420,42.8014,5.9826,13.2973,4.46380,2453.627,37.2135
2023-11-04T09:18:49,2420,42.8014,5.9826,13.2975,4.45986,2453.627,37.1764
2023-11-04T09:21:49,2420,42.8014,5.9826,13.2978,4.45840,2453.664,37.1624
2023-11-04T09:24:49,2420,42.8014,5.9826,13.2977,4.45832,2453.649,37.1617
2023-11-04T09:27:49,2420,42.8014,5.9826,13.2970,4.45959,2453.672,37.1743
2023-11-04T09:30:49,2420,42.8014,5.9826,13.3687,4.45789,2453.612,37.0899
2023-11-04T09:33:49,2420,42.8014,5.9826,13.3250,4.60343,2453.687,38.5010
2023-11-04T09:36:49,2420,42.8014,5.9826,13.2983,4.60335,2453.687,38.5268
2023-11-04T09:39:49,2420,42.8014,5.9826,13.2989,4.60150,2453.687,38.5087
2023-11-04T09:42:49,2420,42.8014,5.9826,13.2973,4.60232,2453.672,38.5180
2023-11-04T09:45:49,2420,42.8014,5.9826,13.3067,4.60259,2453.687,38.5112
2023-11-04T09:48:49,2420,42.8014,5.9826,13.2979,4.60221,2453.695,38.5165
2023-11-04T09:51:49,2420,42.8014,5.9826,13.2974,4.60529,2453.687,38.5461
2023-11-04T09:54:49,2420,42.8014,5.9826,13.2976,4.60504,2453.687,38.5434
2023-11-04T09:57:49,2420,42.8014,5.9826,13.2975,4.60345,2453.664,38.5285
2023-11-04T10:00:49,2420,42.8014,5.9826,13.2975,4.60136,2453.672,38.5088
2023-11-04T10:03:49,2420,42.8014,5.9826,13.2975,4.60547,2453.695,38.5476
2023-11-04T10:06:49,2420,42.8014,5.9826,13.2993,4.60129,2453.717,38.5063
2023-11-04T10:09:49,2420,42.8014,5.9826,13.2981,4.60392,2453.702,38.5324
2023-11-04T10:12:49,2420,42.8014,5.9826,13.2972,4.60422,2453.695,38.5361
2023-11-04T10:15:49,2420,42.8014,5.9826,13.3027,4.60130,2453.695,38.5030
2023-11-04T10:18:49,2420,42.8014,5.9826,13.3218,4.60084,2453.717,38.4798
2023-11-04T10:21:49,2420,42.8014,5.9826,13.3954,4.60069,2453.672,38.4055
2023-11-04T10:24:49,2420,42.8014,5.9826,13.4056,4.60089,2453.672,38.3972
2023-11-04T10:27:49,2420,42.8014,5.9826,13.2982,4.60159,2453.672,38.5103
2023-11-04T10:30:49,2420,42.8014,5.9826,13.3821,4.60091,2453.709,38.4207
2023-11-04T10:33:49,2420,42.8014,5.9826,13.3735,4.60052,2453.709,38.4254
2023-11-04T10:36:49,2420,42.8014,5.9826,13.3085,4.60116,2453.732,38.4960
2023-11-04T10:39:49,2420,42.8014,5.9826,13.3309,4.60081,2453.709,38.4704
2023-11-04T10:42:49,2420,42.8014,5.9826,13.2978,4.60331,2453.672,38.5268
2023-11-04T10:45:49,2420,42.8014,5.9826,13.3196,4.60049,2453.709,38.4786
2023-11-04T10:48:49,2420,42.8014,5.9826,13.2979,4.60380,2453.709,38.5315
2023-11-04T10:51:49,2420,42.8014,5.9826,13.3929,4.60107,2453.717,38.4116
2023-11-04T10:54:49,2420,42.8014,5.9826,13.2978,4.60376,2453.695,38.5312
2023-11-04T10:57:49,2420,42.8014,5.9826,13.2998,4.60096,2453.695,38.5027
2023-11-04T11:00:49,2420,42.8014,5.9826,13.4867,4.60097,2453.732,38.3179
2023-11-04T11:03:49,2420,42.8014,5.9826,13.3046,4.60099,2453.709,38.4982
2023-11-04T11:06:49,2420,42.8014,5.9826,13.2979,4.60462,2453.687,38.5391
2023-11-04T11:09:49,2420,42.8014,5.9826,13.2982,4.60535,2453.695,38.5458
2023-11-04T11:12:49,2420,42.8014,5.9826,13.2976,4.60152,2453.709,38.5102
2023-11-04T11:15:49,2420,42.8014,5.9826,13.2986,4.60405,2453.732,38.5331
2023-11-04T11:18:49,2420,42.8014,5.9826,13.2975,4.60356,2453.717,38.5296
2023-11-04T11:21:49,2420,42.8014,5.9826,13.2978,4.60447,2453.672,38.5380
2023-11-04T11:24:49,2420,42.8014,5.9826,13.2975,4.60430,2453.695,38.5366
2023-11-04T11:27:49,2420,42.8014,5.9826,13.2971,4.60257,2453.717,38.5205
2023-11-04T11:30:49,2420,42.8014,5.9826,13.2975,4.60508,2453.717,38.5440
2023-11-04T11:33:49,2420,42.8014,5.9826,13.3005,4.60218,2453.709,38.5135
2023-11-04T11:36:49,2420,42.8014,5.9826,13.2975,4.60266,2453.717,38.5211
2023-11-04T11:39:49,2420,42.8014,5.9826,13.3055,4.60203,2453.672,38.5071
2023-11-04T11:42:49,2420,42.8014,5.9826,13.3061,4.60494,2453.695,38.5341
2023-11-04T11:45:49,2420,42.8014,5.9826,13.3198,4.60153,2453.709,38.4882
2023-11-04T11:48:49,2420,42.8014,5.9826,13.3014,4.60318,2453.695,38.5221
2023-11-04T11:51:49,2420,42.8014,5.9826,13.2978,4.60176,2453.664,38.5123
2023-11-04T11:54:49,2420,42.8014,5.9826,13.3004,4.60230,2453.687,38.5148
2023-11-04T11:57:49,2420,42.8014,5.9826,13.3098,4.60432,2453.695,38.5246
2023-11-04T12:00:49,2420,42.8014,5.9826,13.3050,4.60200,2453.732,38.5074
2023-11-04T12:03:49,2420,42.8014,5.9826,13.3054,4.60377,2453.732,38.5237
2023-11-04T12:06:49,2420,42.8014,5.9826,13.3383,4.60379,2453.687,38.4913
2023-11-04T12:09:49,2420,42.8014,5.9826,13.3075,4.60342,2453.672,38.5183
2023-11-04T12:12:49,2420,42.8014,5.9826,13.3023,4.60389,2453.695,38.5279
2023-11-04T12:15:49,2420,42.8014,5.9826,13.2996,4.60221,2453.709,38.5148
2023-11-04T12:18:49,2420,42.8014,5.9826,13.2993,4.60388,2453.695,38.5307
2023-11-04T12:21:49,2420,42.8014,5.9826,13.3010,4.60167,2453.695,38.5082
2023-11-04T12:24:49,2420,42.8014,5.9826,13.3048,4.60141,2453.695,38.5020
2023-11-04T12:27:49,2420,42.8014,5.9826,13.3011,4.60238,2453.695,38.5148
2023-11-04T12:30:49,2420,42.8014,5.9826,13.3020,4.60510,2453.709,38.5396
2023-11-04T12:33:49,2420,42.8014,5.9826,13.2985,4.60355,2453.672,38.5285
2023-11-04T12:36:49,2420,42.8014,5.9826,13.3004,4.60186,2453.695,38.5107
2023-11-04T12:39:49,2420,42.8014,5.9826,13.2977,4.60050,2453.695,38.5005
2023-11-04T12:42:49,2420,42.8014,5.9826,13.3011,4.60078,2453.717,38.4997
2023-11-04T12:45:49,2420,42.8014,5.9826,13.2972,4.60084,2453.672,38.5042
2023-11-04T12:48:49,2420,42.8014,5.9826,13.2991,4.60110,2453.680,38.5047
2023-11-04T12:51:49,2420,42.8014,5.9826,13.3021,4.60178,2453.695,38.5082
2023-11-04T12:54:49,2420,42.8014,5.9826,13.2991,4.60060,2453.695,38.5000
2023-11-04T12:57:49,2420,42.8014,5.9826,13.2998,4.60130,2453.672,38.5059
2023-11-04T13:00:49,2420,42.8014,5.9826,13.2976,4.60070,2453.672,38.5024
2023-11-04T13:03:49,2420,42.8014,5.9826,13.2976,4.60036,2453.695,38.4993
2023-11-04T13:06:49,2420,42.8014,5.9826,13.2971,4.60028,2453.717,38.4990
2023-11-04T13:09:49,2420,42.8014,5.9826,13.2970,4.60048,2453.702,38.5010
2023-11-04T13:12:49,2420,42.8014,5.9826,13.2972,4.60005,2453.695,38.4968
2023-11-04T13:15:49,2420,42.8014,5.9826,13.2969,4.60054,2453.717,38.5016
2023-11-04T13:18:49,2420,42.8014,5.9826,13.2973,4.60000,2453.687,38.4962
2023-11-04T13:21:49,2420,42.8014,5.9826,13.2975,4.60006,2453.687,38.4966
2023-11-04T13:24:49,2420,42.8014,5.9826,13.2968,4.60024,2453.672,38.4989
2023-11-04T13:27:49,2420,42.8014,5.9826,13.2974,4.60022,2453.680,38.4981
2023-11-04T13:30:49,2420,42.8014,5.9826,13.2971,4.60014,2453.695,38.4977
2023-11-04T13:33:49,2420,42.8014,5.9826,13.2974,4.60003,2453.695,38.4963
2023-11-04T13:36:49,2420,42.8014,5.9826,13.2973,4.59994,2453.672,38.4956
2023-11-04T13:39:49,2420,42.8014,5.9826,13.2971,4.59992,2453.695,38.4956
2023-11-04T13:42:50,2420,42.8014,5.9826,13.2975,4.60034,2453.695,38.4992
2023-11-04T13:45:49,2420,42.8014,5.9826,13.2973,4.59993,2453.695,38.4955
2023-11-04T13:48:49,2420,42.8014,5.9826,13.2972,4.60005,2453.717,38.4967
2023-11-04T13:51:49,2420,42.8014,5.9826,13.2973,4.59989,2453.672,38.4951
2023-11-04T13:54:49,2420,42.8014,5.9826,13.2975,4.59988,2453.695,38.4948
2023-11-04T13:57:49,2420,42.8014,5.9826,13.2972,4.59979,2453.649,38.4943
2023-11-04T14:00:49,2420,42.8014,5.9826,13.2972,4.59987,2453.695,38.4950
2023-11-04T14:03:49,2420,42.8014,5.9826,13.2996,4.59983,2453.672,38.4923
2023-11-04T14:06:49,2420,42.8014,5.9826,13.2971,4.60001,2453.649,38.4964
2023-11-04T14:09:49,2420,42.8014,5.9826,13.2973,4.59994,2453.672,38.4956
2023-11-04T14:12:49,2420,42.8014,5.9826,13.2971,4.59982,2453.709,38.4946
2023-11-04T14:15:49,2420,42.8014,5.9826,13.2971,4.59980,2453.695,38.4944
2023-11-04T14:18:49,2420,42.8014,5.9826,13.2973,4.59985,2453.649,38.4948
2023-11-04T14:21:49,2420,42.8014,5.9826,13.2970,4.59994,2453.649,38.4959
2023-11-04T14:24:49,2420,42.8014,5.9826,13.2974,4.59978,2453.649,38.4940
2023-11-04T14:27:49,2420,42.8014,5.9826,13.2970,4.59987,2453.695,38.4952
2023-11-04T14:30:49,2420,42.8014,5.9826,13.2971,4.60002,2453.695,38.4965
2023-11-04T14:33:49,2420,42.8014,5.9826,13.2973,4.59996,2453.657,38.4958
2023-11-04T14:36:49,2420,42.8014,5.9826,13.2968,4.59996,2453.649,38.4963
2023-11-04T14:39:49,2420,42.8014,5.9826,13.2971,4.59991,2453.672,38.4955
2023-11-04T14:42:49,2420,42.8014,5.9826,13.2977,4.59989,2453.672,38.4948
2023-11-04T14:45:49,2420,42.8014,5.9826,13.2973,4.59993,2453.672,38.4955
2023-11-04T14:48:49,2420,42.8014,5.9826,13.2972,4.60006,2453.657,38.4968
2023-11-04T14:51:49,2420,42.8014,5.9826,13.2973,4.59988,2453.717,38.4951
2023-11-04T14:54:49,2420,42.8014,5.9826,13.2975,4.59990,2453.695,38.4950
2023-11-04T14:57:49,2420,42.8014,5.9826,13.2975,4.59996,2453.687,38.4957
2023-11-04T15:00:49,2420,42.8014,5.9826,13.2975,4.59975,2453.695,38.4936
2023-11-04T15:03:49,2420,42.8014,5.9826,13.2973,4.59977,2453.672,38.4939
2023-11-04T15:06:49,2420,42.8014,5.9826,13.2977,4.60004,2453.612,38.4962
2023-11-04T15:09:49,2420,42.8014,5.9826,13.2973,4.59980,2453.664,38.4942
2023-11-04T15:12:49,2420,42.8014,5.9826,13.2973,4.59981,2453.672,38.4943
2023-11-04T15:15:49,2420,42.8014,5.9826,13.2978,4.59985,2453.672,38.4943
2023-11-04T15:18:49,2420,42.8014,5.9826,13.2971,4.59972,2453.672,38.4937
2023-11-04T15:21:49,2420,42.8014,5.9826,13.2972,4.59982,2453.672,38.4945
2023-11-04T15:24:49,2420,42.8014,5.9826,13.2971,4.59987,2453.709,38.4951
2023-11-04T15:27:49,2420,42.8014,5.9826,13.2973,4.59972,2453.695,38.4935
2023-11-04T15:30:49,2420,42.8014,5.9826,13.2970,4.59976,2453.672,38.4941
2023-11-04T15:33:49,2420,42.8014,5.9826,13.2973,4.59983,2453.695,38.4946
2023-11-04T15:36:49,2420,42.8014,5.9826,13.2969,4.59988,2453.657,38.4954
2023-11-04T15:39:49,2420,42.8014,5.9826,13.2977,4.59988,2453.672,38.4946
2023-11-04T15:42:49,2420,42.8014,5.9826,13.2976,4.59992,2453.687,38.4951
2023-11-04T15:45:49,2420,42.8014,5.9826,13.2971,4.59978,2453.672,38.4943
2023-11-04T15:48:49,2420,42.8014,5.9826,13.2973,4.59996,2453.672,38.4958
2023-11-04T15:51:49,2420,42.8014,5.9826,13.2973,4.59981,2453.695,38.4944
2023-11-04T15:54:49,2420,42.8014,5.9826,13.2974,4.59979,2453.695,38.4940
2023-11-04T15:57:50,2420,42.8014,5.9826,13.2975,4.59982,2453.649,38.4943
2023-11-04T16:00:49,2420,42.8014,5.9826,13.2973,4.59971,2453.649,38.4935
2023-11-04T16:03:49,2420,42.8014,5.9826,13.2973,4.59973,2453.649,38.4935